EUTELSAT 172B

Last updated on Tue Dec 16 2025 00:02:51 GMT+0000 (Coordinated Universal Time)

1 42741U 17029B 25349.34558726 .00000000 00000+0 00000+0 0 9998 2 42741 0.0146 58.9612 0000293 338.1576 343.5175 1.00270284 31881
UTC large
Height (km)
Speed (km/s)
/
Latitude / Longitude
Inclination (degrees)
Orbital Period (minutes)
Azimuth
Elevation
Range (km)
Doppler Factor

Next 0 passes for location: London (51.5072 / 0.1276)

Sorry there are no passes over London.